Regional Weather Roundup
Issued by NWS

Home | Current Version | Previous Version | Text Only | Print | Product List | Glossary On
Versions: 1 2 3 4 5 6 7 8 9 10 11 12 13 14 15 16 17 18 19 20 21 22 23 24 25 26 27 28 29 30 31 32 33 34 35 36 37 38 39 40 41 42 43 44 45 46 47 48 49 50
431
ASUS44 KFWD 200901
RWRTX
NORTH TEXAS HOURLY WEATHER ROUNDUP
NATIONAL WEATHER SERVICE FORT WORTH TX
300 AM CST FRI JAN 20 2017

NOTE: "FAIR" INDICATES FEW OR NO CLOUDS BELOW 12,000 FEET WITH NO
SIGNIFICANT WEATHER AND/OR OBSTRUCTIONS TO VISIBILITY.

TXZ118-119-201000-
DALLAS/FORT WORTH METROPLEX

CITY           SKY/WX    TMP DP  RH WIND       PRES   REMARKS
DFW AIRPORT    CLEAR     50  46  86 SW12      29.60R
DALLAS LOVE    PTCLDY    55  47  74 SW8       29.62R
FTW MEACHAM    CLEAR     53  38  56 S8        29.61S
DAL-EXECUTIVE  CLEAR     55  44  66 SW9       29.62S
FTW-ALLIANCE   PTCLDY    51  39  63 SW9       29.60S
FTW-NAS-JRB    CLEAR     55  38  52 SW15      29.62S
FTW-SPINKS     CLEAR     51  41  70 S8        29.65R
ARLINGTON      CLEAR     50  45  83 S6        29.63R
GRAND PRAIRIE  CLEAR     51  47  86 S6        29.64S
ADDISON        CLEAR     54  50  86 S5        29.63S
MESQUITE       CLEAR     51  51  99 S9        29.64R
LANCASTER      CLEAR     52  48  86 SW5       29.64F
$$

TXZ091>094-102>105-117-120-121-131>134-201000-
NORTH CENTRAL TEXAS

CITY           SKY/WX    TMP DP  RH WIND       PRES   REMARKS
SHRMAN/DENISON CLEAR     52  50  93 S14       29.58F
GAINESVILLE    CLEAR     45  40  82 S5        29.60S
BOWIE          CLEAR     55  37  49 SW10G17   29.58R
BRIDGEPORT     CLEAR     52  38  58 SW8       29.61S
DECATUR        CLEAR     53  35  50 SW8       29.59F
DENTON         CLEAR     49  41  74 S8        29.60S
MCKINNEY       CLEAR     51  50  96 S12       29.60S
BONHAM         CLEAR     52  50  93 S13       29.60R
ROCKWALL       CLEAR     52  52 100 S10       29.63R
TERRELL        CLEAR     54  51  90 S10       29.64S
WAXAHACHIE     CLEAR     50  47  90 SW7       29.66R
CLEBURNE       CLEAR     52  41  66 CALM      29.66S
GRANBURY       CLEAR     55  36  49 SW8       29.65S
$$

TXZ083>090-098>101-113>116-127>130-139>142-154-155-201000-
WESTERN NORTH TEXAS

CITY           SKY/WX    TMP DP  RH WIND       PRES   REMARKS
WICHITA FALLS  CLEAR     47  37  68 SW14      29.54R
WF-KICKAPOO    CLEAR     50  38  62 SW6       29.57S
VERNON         CLEAR     45  33  61 SW9       29.55F
ABILENE        CLEAR     50  33  52 SW12      29.66S
ABILENE-DYESS  CLEAR     54  29  38 SW15G22   29.64F
CISCO          CLEAR     54  32  43 W14G20    29.66S
RANGER         CLEAR     52  34  50 SW10      29.65S
MINERAL WELLS  CLEAR     52  34  50 W9        29.60S
STEPHENVILLE   CLEAR     54  33  44 SW10      29.68S
COMANCHE       CLEAR     50  34  52 S7        29.68S
BROWNWOOD      PTCLDY    50  32  50 SW8       29.70S
COLEMAN        CLEAR     54  32  43 SW8       29.70S
$$

TXZ143>147-156>162-174-175-201000-
CENTRAL TEXAS

CITY           SKY/WX    TMP DP  RH WIND       PRES   REMARKS
WACO           CLEAR     51  48  89 SW10      29.68S
WACO-MCGREGOR  CLEAR     50  48  93 S6        29.70R
HILLSBORO      CLEAR     51  48  90 S10       29.67R
CORSICANA      CLEAR     57  53  86 SW10      29.68S
MEXIA          CLEAR     55  53  95 S16G24    29.68S
HEARNE         CLOUDY    58  58 100 S6        29.75R FOG
CAMERON        CLEAR     57  55  95 S12       29.72S FOG
TEMPLE         CLEAR     48  47  96 S7        29.71S
KILLEEN        CLEAR     56  41  57 SW9       29.70R
KILLEEN-SKYLRK CLEAR     47  45  93 S5        29.72R
FORT HOOD      CLEAR     51  43  72 CALM      29.68R
HAMILTON       CLEAR     49  37  63 W12       29.69S
LAMPASAS       CLEAR     50  42  72 W6        29.71R
$$

TXZ095>097-106>112-122>126-135>138-148>153-164>167-201000-
EAST TEXAS

CITY           SKY/WX    TMP DP  RH WIND       PRES   REMARKS
PARIS          CLEAR     54  50  87 S13       29.62S
SULPHUR SPRNGS CLEAR     55  54  95 S10       29.65S
MOUNT PLEASANT CLEAR     55  55 100 S7        29.65F
GILMER         CLOUDY    55  54  97 S7        29.66S
MINEOLA        CLEAR     55  54  94 S6        29.64F
TYLER          CLEAR     55  54  96 S12       29.66S
LONGVIEW       CLEAR     56  56 100 S12       29.67S
MARSHALL       CLOUDY    56  53  89 S9G16     29.70S
ATHENS         PTCLDY    54  54 100 S8        29.67R FOG
PALESTINE      CLOUDY    58  58 100 S10       29.72R FOG
JACKSONVILLE   CLOUDY    57  57 100 S10G17    29.72R
HENDERSON      CLOUDY    57  57 100 S5        29.70S
CENTER         CLOUDY    60  59  95 S7        29.72F
NACOGDOCHES    CLOUDY    59  55  88 SW8       29.72R
LUFKIN         CLOUDY    59  57  93 SW5       29.72F
$$

SUPPLEMENTAL OBSERVATIONS (CENTRAL)

CITY           SKY/WX    TMP DP  RH WIND       PRES   REMARKS
$$

SUPPLEMENTAL OBSERVATIONS (WEST)

CITY           SKY/WX    TMP DP  RH WIND       PRES   REMARKS
$$

SUPPLEMENTAL OBSERVATIONS (EAST)

CITY           SKY/WX    TMP DP  RH WIND       PRES   REMARKS
$$

SUPPLEMENTAL OBSERVATIONS ARE A COLLECTION OF AUTOMATED INSTRUMENTS
THAT ARE MAINTAINED BY A VARIETY OF FEDERAL AND STATE AGENCIES.
CERTAIN ELEMENTS...SUCH AS HUMIDITY VALUES AND SUSTAINED WIND
SPEEDS...MAY BE APPROXIMATED.





USA.gov is the U.S. government's official web portal to all federal, state and local government web resources and services.